START_TIME,STEP,MOV.,AL01,t_acc.,AL02,t_acc.,E37,t_acc.,H21,t_acc.
1979-07-04 06:00:35.120 ,1,1,0.,24.0,0.,24.0,0.,24.0,0.,24.0
1979-07-04 06:00:59.120 ,2,1,0.,24.0,0.,24.0,1.,24.0,0.,24.0
1979-07-04 06:01:23.120 ,6,1,1.,24.0,0.,24.0,0.,24.0,0.,24.0
1979-07-04 06:01:47.120 ,5,1,17.,24.0,0.,24.0,0.,24.0,0.,24.0
1979-07-04 06:02:11.120 ,1,1,0.,24.0,0.,24.0,0.,24.0,0.,24.0
1979-07-04 06:02:35.120 ,2,1,0.,24.0,0.,24.0,0.,24.0,0.,24.0
1979-07-04 06:02:59.120 ,6,1,0.,24.0,0.,24.0,1.,24.0,0.,24.0
1979-07-04 06:03:23.120 ,5,1,12.,24.0,0.,24.0,0.,24.0,0.,24.0
1979-07-04 06:03:47.120 ,1,1,0.,24.0,0.,24.0,0.,24.0,0.,24.0
1979-07-04 06:04:11.120 ,2,1,0.,24.0,0.,24.0,0.,24.0,0.,24.0
1979-07-04 06:04:35.120 ,6,1,0.,24.0,0.,24.0,0.,24.0,0.,24.0
1979-07-04 06:04:59.120 ,5,1,11.,24.0,0.,24.0,0.,24.0,0.,24.0
1979-07-04 06:05:23.120 ,1,1,2.,24.0,0.,24.0,1.,24.0,0.,24.0
1979-07-04 06:05:47.120 ,0,0,0.,24.0,0.,24.0,0.,24.0,0.,24.0
1979-07-04 06:06:11.120 ,0,0,0.,24.0,0.,24.0,0.,24.0,0.,24.0
1979-07-04 06:06:35.120 ,5,1,23.,24.0,0.,24.0,0.,24.0,0.,24.0
1979-07-04 06:06:59.120 ,5,0,1.,24.0,0.,24.0,0.,24.0,0.,24.0
1979-07-04 06:07:23.120 ,4,1,0.,24.0,0.,24.0,0.,24.0,0.,24.0
1979-07-04 06:07:47.120 ,4,0,0.,24.0,0.,24.0,0.,24.0,0.,24.0
1979-07-04 06:08:11.120 ,3,1,0.,24.0,0.,24.0,0.,24.0,0.,24.0
1979-07-04 06:08:35.120 ,0,0,0.,24.0,0.,24.0,0.,24.0,0.,24.0
1979-07-04 06:09:02.720 ,0,0,0.,24.0,0.,24.0,0.,24.0,0.,24.0
1979-07-04 06:09:23.120 ,0,0,0.,24.0,1.,24.0,0.,24.0,0.,24.0
1979-07-04 06:09:47.120 ,1,1,0.,24.0,0.,24.0,0.,24.0,0.,24.0
1979-07-04 06:10:11.120 ,1,0,0.,24.0,0.,24.0,0.,24.0,0.,24.0
1979-07-04 06:10:35.120 ,0,1,0.,24.0,0.,24.0,0.,24.0,0.,24.0
1979-07-04 06:10:59.120 ,0,0,0.,24.0,0.,24.0,0.,24.0,0.,24.0
1979-07-04 06:11:23.120 ,0,1,0.,24.0,0.,24.0,0.,24.0,0.,24.0
1979-07-04 06:11:47.120 ,0,0,0.,24.0,0.,24.0,0.,24.0,0.,24.0
1979-07-04 06:12:11.120 ,1,1,0.,24.0,0.,24.0,0.,24.0,0.,24.0
1979-07-04 06:12:35.120 ,1,0,1.,24.0,0.,24.0,0.,24.0,0.,24.0
1979-07-04 06:12:59.120 ,2,1,1.,24.0,0.,24.0,0.,24.0,0.,24.0
1979-07-04 06:13:23.120 ,2,0,0.,24.0,0.,24.0,0.,24.0,0.,24.0
1979-07-04 06:13:47.120 ,3,1,0.,24.0,0.,24.0,0.,24.0,0.,24.0
1979-07-04 06:14:11.120 ,3,0,0.,24.0,0.,24.0,0.,24.0,0.,24.0
1979-07-04 06:14:35.120 ,4,1,0.,24.0,0.,24.0,0.,24.0,0.,24.0
1979-07-04 06:14:59.120 ,4,0,0.,24.0,0.,24.0,0.,24.0,0.,24.0
1979-07-04 06:15:23.120 ,5,1,0.,24.0,1.,24.0,1.,24.0,0.,24.0
1979-07-04 06:15:47.120 ,5,0,0.,24.0,0.,24.0,0.,24.0,0.,24.0
1979-07-04 06:16:11.120 ,6,1,0.,24.0,0.,24.0,0.,24.0,0.,24.0
1979-07-04 06:16:35.120 ,6,0,0.,24.0,0.,24.0,0.,24.0,0.,24.0
1979-07-04 06:16:59.120 ,7,1,8.,24.0,0.,24.0,0.,24.0,0.,24.0
1979-07-04 06:17:23.120 ,7,0,26.,24.0,0.,24.0,0.,24.0,0.,24.0
1979-07-04 06:17:47.120 ,7,1,36.,24.0,0.,24.0,0.,24.0,0.,24.0
1979-07-04 06:18:11.120 ,7,0,22.,24.0,0.,24.0,0.,24.0,0.,24.0
1979-07-04 06:18:35.120 ,6,1,16.,24.0,0.,24.0,0.,24.0,0.,24.0
1979-07-04 06:18:59.120 ,6,0,0.,24.0,0.,24.0,0.,24.0,0.,24.0
1979-07-04 06:19:23.120 ,5,1,0.,24.0,0.,24.0,1.,24.0,0.,24.0
1979-07-04 06:19:47.120 ,5,0,0.,24.0,0.,24.0,0.,24.0,0.,24.0
1979-07-04 06:20:11.120 ,4,1,0.,24.0,0.,24.0,0.,24.0,0.,24.0
1979-07-04 06:20:35.120 ,4,0,0.,24.0,0.,24.0,0.,24.0,0.,24.0
1979-07-04 06:20:59.120 ,3,1,0.,24.0,0.,24.0,0.,24.0,0.,24.0
1979-07-04 06:21:23.120 ,3,0,0.,24.0,1.,24.0,1.,24.0,0.,24.0
1979-07-04 06:21:47.120 ,2,1,1.,24.0,0.,24.0,0.,24.0,0.,24.0
1979-07-04 06:22:11.120 ,2,0,1.,24.0,0.,24.0,0.,24.0,0.,24.0
1979-07-04 06:22:35.120 ,1,1,1.,24.0,0.,24.0,1.,24.0,0.,24.0
1979-07-04 06:22:59.120 ,1,0,0.,24.0,0.,24.0,0.,24.0,0.,24.0
1979-07-04 06:23:23.120 ,0,1,0.,24.0,0.,24.0,0.,24.0,0.,24.0
1979-07-04 06:23:47.120 ,0,0,0.,24.0,0.,24.0,0.,24.0,0.,24.0
1979-07-04 06:24:11.120 ,0,1,0.,24.0,0.,24.0,0.,24.0,0.,24.0
1979-07-04 06:24:35.120 ,0,0,0.,24.0,0.,24.0,0.,24.0,0.,24.0
1979-07-04 06:24:59.120 ,1,1,0.,24.0,0.,24.0,1.,24.0,0.,24.0
1979-07-04 06:25:23.120 ,1,0,0.,24.0,1.,24.0,0.,24.0,0.,24.0
1979-07-04 06:25:47.120 ,2,1,0.,24.0,0.,24.0,0.,24.0,0.,24.0
1979-07-04 06:26:11.120 ,2,0,0.,24.0,0.,24.0,0.,24.0,0.,24.0
1979-07-04 06:26:35.120 ,3,1,0.,24.0,0.,24.0,0.,24.0,0.,24.0
1979-07-04 06:26:59.120 ,3,0,0.,24.0,0.,24.0,0.,24.0,0.,24.0
1979-07-04 06:27:23.120 ,4,1,0.,24.0,0.,24.0,0.,24.0,0.,24.0
1979-07-04 06:27:47.120 ,4,0,2.,24.0,0.,24.0,1.,24.0,0.,24.0
1979-07-04 06:28:11.120 ,5,1,0.,24.0,0.,24.0,0.,24.0,0.,24.0
1979-07-04 06:28:35.120 ,5,0,0.,24.0,0.,24.0,0.,24.0,0.,24.0
1979-07-04 06:28:59.120 ,6,1,0.,24.0,0.,24.0,0.,24.0,0.,24.0
1979-07-04 06:29:23.120 ,6,0,0.,24.0,0.,24.0,0.,24.0,0.,24.0
1979-07-04 06:29:47.120 ,7,1,8.,24.0,1.,24.0,0.,24.0,0.,24.0
1979-07-04 06:30:11.120 ,7,0,32.,24.0,0.,24.0,0.,24.0,0.,24.0
1979-07-04 06:30:35.120 ,7,1,32.,24.0,0.,24.0,0.,24.0,0.,24.0
1979-07-04 06:30:59.120 ,7,0,25.,24.0,0.,24.0,0.,24.0,0.,24.0
1979-07-04 06:31:23.120 ,6,1,27.,24.0,0.,24.0,0.,24.0,0.,24.0
1979-07-04 06:31:47.120 ,6,0,0.,24.0,0.,24.0,1.,24.0,0.,24.0
1979-07-04 06:32:11.120 ,5,1,0.,24.0,0.,24.0,0.,24.0,0.,24.0
1979-07-04 06:32:35.120 ,5,0,0.,24.0,0.,24.0,0.,24.0,0.,24.0
1979-07-04 06:32:59.120 ,4,1,1.,24.0,0.,24.0,0.,24.0,0.,24.0
1979-07-04 06:33:23.120 ,4,0,0.,24.0,0.,24.0,0.,24.0,0.,24.0
1979-07-04 06:33:47.120 ,3,1,0.,24.0,0.,24.0,0.,24.0,0.,24.0
1979-07-04 06:34:11.120 ,3,0,1.,24.0,1.,24.0,0.,24.0,0.,24.0
1979-07-04 06:34:35.120 ,2,1,1.,24.0,0.,24.0,0.,24.0,0.,24.0
1979-07-04 06:34:59.120 ,2,0,0.,24.0,0.,24.0,0.,24.0,0.,24.0
1979-07-04 06:35:23.120 ,1,1,0.,24.0,0.,24.0,0.,24.0,0.,24.0
1979-07-04 06:35:47.120 ,1,0,0.,24.0,0.,24.0,0.,24.0,0.,24.0
1979-07-04 06:36:11.120 ,0,1,0.,24.0,0.,24.0,0.,24.0,0.,24.0
1979-07-04 06:36:35.120 ,0,0,0.,24.0,0.,24.0,0.,24.0,0.,24.0
1979-07-04 06:36:59.120 ,0,1,0.,24.0,0.,24.0,0.,24.0,0.,24.0
1979-07-04 06:37:23.120 ,0,0,0.,24.0,0.,24.0,0.,24.0,0.,24.0
1979-07-04 06:37:47.120 ,1,1,2.,24.0,0.,24.0,0.,24.0,0.,24.0
1979-07-04 06:38:11.120 ,1,0,0.,24.0,0.,24.0,1.,24.0,0.,24.0
1979-07-04 06:38:35.120 ,2,1,0.,24.0,0.,24.0,0.,24.0,0.,24.0
1979-07-04 06:38:59.120 ,2,0,0.,24.0,0.,24.0,0.,24.0,0.,24.0
1979-07-04 06:39:23.120 ,3,1,0.,24.0,1.,24.0,2.,24.0,0.,24.0
1979-07-04 06:39:47.120 ,3,0,1.,24.0,1.,24.0,0.,24.0,0.,24.0
1979-07-04 06:40:11.120 ,4,1,0.,24.0,0.,24.0,1.,24.0,0.,24.0
1979-07-04 06:40:35.120 ,4,0,0.,24.0,0.,24.0,0.,24.0,0.,24.0
1979-07-04 06:40:59.120 ,5,1,0.,24.0,0.,24.0,0.,24.0,0.,24.0
1979-07-04 06:41:23.120 ,5,0,0.,24.0,1.,24.0,0.,24.0,0.,24.0
1979-07-04 06:41:47.120 ,6,1,0.,24.0,1.,24.0,0.,24.0,0.,24.0
1979-07-04 06:42:11.120 ,6,0,0.,24.0,0.,24.0,1.,24.0,0.,24.0
1979-07-04 06:42:35.120 ,7,0,12.,24.0,0.,24.0,0.,24.0,0.,24.0
1979-07-04 06:42:59.120 ,7,0,27.,24.0,0.,24.0,0.,24.0,0.,24.0
1979-07-04 06:43:23.120 ,5,1,19.,24.0,0.,24.0,0.,24.0,0.,24.0
1979-07-04 06:43:47.120 ,1,1,0.,24.0,0.,24.0,0.,24.0,0.,24.0
1979-07-04 06:44:11.120 ,2,1,0.,24.0,0.,24.0,0.,24.0,0.,24.0
1979-07-04 06:44:35.120 ,6,1,0.,24.0,0.,24.0,2.,24.0,0.,24.0
1979-07-04 06:44:59.120 ,5,1,20.,24.0,0.,24.0,0.,24.0,0.,24.0
1979-07-04 06:45:23.120 ,1,1,1.,24.0,0.,24.0,0.,24.0,0.,24.0
1979-07-04 06:45:47.120 ,2,1,0.,24.0,0.,24.0,0.,24.0,0.,24.0
1979-07-04 06:46:11.120 ,6,1,0.,24.0,0.,24.0,0.,24.0,0.,24.0
1979-07-04 06:46:35.120 ,5,1,11.,24.0,0.,24.0,0.,24.0,0.,24.0
1979-07-04 06:46:59.120 ,1,1,1.,24.0,0.,24.0,0.,24.0,0.,24.0
1979-07-04 06:47:23.120 ,2,1,0.,24.0,0.,24.0,0.,24.0,0.,24.0
1979-07-04 06:47:47.120 ,6,1,0.,24.0,0.,24.0,1.,24.0,0.,24.0
1979-07-04 06:48:11.120 ,5,1,18.,24.0,0.,24.0,0.,24.0,0.,24.0
1979-07-04 06:48:35.120 ,1,1,0.,24.0,0.,24.0,0.,24.0,0.,24.0
1979-07-04 06:48:59.120 ,2,1,0.,24.0,0.,24.0,0.,24.0,0.,24.0
1979-07-04 06:49:23.120 ,6,1,0.,24.0,0.,24.0,0.,24.0,0.,24.0
1979-07-04 06:49:47.120 ,5,1,18.,24.0,0.,24.0,0.,24.0,0.,24.0
1979-07-04 06:50:11.120 ,1,1,0.,24.0,0.,24.0,0.,24.0,0.,24.0
1979-07-04 06:50:35.120 ,2,1,0.,24.0,0.,24.0,1.,24.0,0.,24.0
1979-07-04 06:50:59.120 ,6,1,0.,24.0,0.,24.0,0.,24.0,0.,24.0
1979-07-04 06:51:23.120 ,5,1,11.,24.0,0.,24.0,0.,24.0,0.,24.0
1979-07-04 06:51:47.120 ,1,1,0.,24.0,0.,24.0,0.,24.0,0.,24.0
1979-07-04 06:52:11.120 ,2,1,0.,24.0,0.,24.0,0.,24.0,0.,24.0
1979-07-04 06:52:35.120 ,6,1,0.,24.0,0.,24.0,0.,24.0,0.,24.0
1979-07-04 06:52:59.110 ,5,1,18.,24.0,0.,24.0,0.,24.0,0.,24.0
1979-07-04 06:53:23.110 ,1,1,0.,24.0,0.,24.0,0.,24.0,0.,24.0
1979-07-04 06:53:47.110 ,0,0,0.,24.0,1.,24.0,0.,24.0,0.,24.0
1979-07-04 06:54:11.110 ,0,0,0.,24.0,0.,24.0,0.,24.0,0.,24.0
1979-07-04 06:54:35.110 ,5,1,15.,24.0,0.,24.0,0.,24.0,0.,24.0
1979-07-04 06:54:59.110 ,5,0,0.,24.0,0.,24.0,0.,24.0,0.,24.0
1979-07-04 06:55:23.110 ,4,1,0.,24.0,0.,24.0,0.,24.0,0.,24.0
1979-07-04 06:55:47.110 ,4,0,0.,24.0,0.,24.0,0.,24.0,0.,24.0
1979-07-04 06:56:11.110 ,3,1,0.,24.0,0.,24.0,0.,24.0,0.,24.0
1979-07-04 06:56:35.110 ,3,0,0.,24.0,0.,24.0,0.,24.0,0.,24.0
1979-07-04 06:56:59.110 ,2,1,0.,24.0,0.,24.0,2.,24.0,0.,24.0
1979-07-04 06:57:23.110 ,2,0,0.,24.0,0.,24.0,1.,24.0,0.,24.0
1979-07-04 06:57:47.110 ,1,1,0.,24.0,0.,24.0,1.,24.0,0.,24.0
1979-07-04 06:58:11.110 ,1,0,1.,24.0,0.,24.0,1.,24.0,0.,24.0
1979-07-04 06:58:35.110 ,0,1,0.,24.0,0.,24.0,0.,24.0,0.,24.0
1979-07-04 06:58:59.110 ,0,0,0.,24.0,0.,24.0,1.,24.0,0.,24.0
1979-07-04 06:59:23.110 ,0,1,0.,24.0,0.,24.0,0.,24.0,0.,24.0
1979-07-04 06:59:47.110 ,0,0,0.,24.0,0.,24.0,0.,24.0,0.,24.0
1979-07-04 07:00:11.110 ,1,1,0.,24.0,0.,24.0,0.,24.0,0.,24.0
1979-07-04 07:00:35.120 ,1,0,0.,24.0,0.,24.0,1.,24.0,0.,24.0
1979-07-04 07:00:59.120 ,2,1,0.,24.0,1.,24.0,1.,24.0,0.,24.0
1979-07-04 07:01:23.120 ,2,0,0.,24.0,0.,24.0,0.,24.0,0.,24.0
1979-07-04 07:01:47.120 ,3,1,0.,24.0,1.,24.0,0.,24.0,0.,24.0
1979-07-04 07:02:11.120 ,3,0,0.,24.0,0.,24.0,0.,24.0,0.,24.0
1979-07-04 07:02:35.120 ,4,1,0.,24.0,0.,24.0,1.,24.0,0.,24.0
1979-07-04 07:02:59.120 ,4,0,0.,24.0,0.,24.0,0.,24.0,0.,24.0
1979-07-04 07:03:23.120 ,5,1,0.,24.0,0.,24.0,0.,24.0,0.,24.0
1979-07-04 07:03:47.120 ,5,0,0.,24.0,0.,24.0,0.,24.0,0.,24.0
1979-07-04 07:04:11.120 ,6,1,0.,24.0,0.,24.0,1.,24.0,0.,24.0
1979-07-04 07:04:35.120 ,6,0,1.,24.0,0.,24.0,0.,24.0,0.,24.0
1979-07-04 07:04:59.120 ,7,1,9.,24.0,0.,24.0,1.,24.0,0.,24.0
1979-07-04 07:05:23.120 ,7,0,33.,24.0,0.,24.0,1.,24.0,0.,24.0
1979-07-04 07:05:47.120 ,7,1,23.,24.0,0.,24.0,1.,24.0,0.,24.0
1979-07-04 07:06:11.110 ,7,0,27.,24.0,0.,24.0,0.,24.0,0.,24.0
1979-07-04 07:06:35.120 ,6,1,19.,24.0,0.,24.0,0.,24.0,0.,24.0
1979-07-04 07:06:59.120 ,6,0,0.,24.0,0.,24.0,1.,24.0,0.,24.0
1979-07-04 07:07:23.120 ,5,1,0.,24.0,0.,24.0,0.,24.0,0.,24.0
1979-07-04 07:07:47.120 ,5,0,0.,24.0,0.,24.0,0.,24.0,0.,24.0
1979-07-04 07:08:11.110 ,4,1,0.,24.0,0.,24.0,1.,24.0,0.,24.0
1979-07-04 07:08:35.110 ,4,0,1.,24.0,0.,24.0,0.,24.0,0.,24.0
1979-07-04 07:08:59.110 ,3,1,1.,24.0,0.,24.0,0.,24.0,0.,24.0
1979-07-04 07:09:23.110 ,3,0,0.,24.0,0.,24.0,0.,24.0,0.,24.0
1979-07-04 07:09:47.110 ,2,1,0.,24.0,0.,24.0,0.,24.0,0.,24.0
1979-07-04 07:10:11.110 ,2,0,0.,24.0,0.,24.0,0.,24.0,0.,24.0
1979-07-04 07:10:35.110 ,1,1,0.,24.0,0.,24.0,0.,24.0,0.,24.0
1979-07-04 07:10:59.110 ,1,0,0.,24.0,0.,24.0,0.,24.0,0.,24.0
1979-07-04 07:11:23.110 ,0,1,0.,24.0,0.,24.0,0.,24.0,0.,24.0
1979-07-04 07:11:47.110 ,0,0,0.,24.0,0.,24.0,0.,24.0,0.,24.0
1979-07-04 07:12:11.110 ,0,1,0.,24.0,0.,24.0,0.,24.0,0.,24.0
1979-07-04 07:12:35.110 ,0,0,0.,24.0,0.,24.0,0.,24.0,0.,24.0
1979-07-04 07:12:59.110 ,1,1,0.,24.0,0.,24.0,0.,24.0,0.,24.0
1979-07-04 07:13:23.110 ,1,0,1.,24.0,0.,24.0,0.,24.0,0.,24.0
1979-07-04 07:13:47.110 ,2,1,0.,24.0,0.,24.0,0.,24.0,0.,24.0
1979-07-04 07:14:11.110 ,2,0,0.,24.0,0.,24.0,0.,24.0,0.,24.0
1979-07-04 07:14:35.110 ,3,1,1.,24.0,0.,24.0,1.,24.0,0.,24.0
1979-07-04 07:14:59.110 ,3,0,0.,24.0,0.,24.0,0.,24.0,0.,24.0
1979-07-04 07:15:23.110 ,4,1,0.,24.0,0.,24.0,0.,24.0,0.,24.0
1979-07-04 07:15:47.110 ,4,0,0.,24.0,0.,24.0,0.,24.0,0.,24.0
1979-07-04 07:16:11.110 ,5,1,0.,24.0,0.,24.0,0.,24.0,0.,24.0
1979-07-04 07:16:35.110 ,5,0,0.,24.0,0.,24.0,0.,24.0,0.,24.0
1979-07-04 07:16:59.110 ,6,1,0.,24.0,1.,24.0,1.,24.0,0.,24.0
1979-07-04 07:17:23.110 ,6,0,0.,24.0,0.,24.0,0.,24.0,0.,24.0
1979-07-04 07:17:47.110 ,7,1,8.,24.0,0.,24.0,0.,24.0,0.,24.0
1979-07-04 07:18:11.110 ,7,0,32.,24.0,0.,24.0,0.,24.0,0.,24.0
1979-07-04 07:18:35.110 ,7,1,33.,24.0,0.,24.0,0.,24.0,0.,24.0
1979-07-04 07:18:59.110 ,0,0,37.,24.0,0.,24.0,0.,24.0,0.,24.0
1979-07-04 07:19:26.110 ,0,0,,0,,0,,0,,0
1979-07-04 07:19:47.110 ,0,0,1.,24.0,0.,24.0,0.,24.0,0.,24.0
1979-07-04 07:20:11.110 ,5,1,0.,24.0,0.,24.0,1.,24.0,0.,24.0
1979-07-04 07:20:35.110 ,5,0,0.,24.0,0.,24.0,1.,24.0,0.,24.0
1979-07-04 07:20:59.110 ,4,1,0.,24.0,0.,24.0,0.,24.0,0.,24.0
1979-07-04 07:21:23.110 ,4,0,0.,24.0,0.,24.0,0.,24.0,0.,24.0
1979-07-04 07:21:47.110 ,3,1,0.,24.0,0.,24.0,0.,24.0,0.,24.0
1979-07-04 07:22:11.110 ,3,0,0.,24.0,0.,24.0,0.,24.0,0.,24.0
1979-07-04 07:22:35.110 ,2,1,0.,24.0,0.,24.0,1.,24.0,0.,24.0
1979-07-04 07:22:59.110 ,2,0,0.,24.0,0.,24.0,0.,24.0,0.,24.0
1979-07-04 07:23:23.110 ,1,1,0.,24.0,0.,24.0,0.,24.0,0.,24.0
1979-07-04 07:23:47.110 ,1,0,0.,24.0,0.,24.0,0.,24.0,0.,24.0
1979-07-04 07:24:11.110 ,0,1,0.,24.0,0.,24.0,0.,24.0,0.,24.0
1979-07-04 07:24:35.110 ,0,0,1.,24.0,0.,24.0,0.,24.0,0.,24.0
1979-07-04 07:24:59.110 ,0,1,0.,24.0,0.,24.0,1.,24.0,0.,24.0
1979-07-04 07:25:23.110 ,0,0,0.,24.0,0.,24.0,0.,24.0,0.,24.0
1979-07-04 07:25:47.110 ,1,1,0.,24.0,0.,24.0,1.,24.0,0.,24.0
1979-07-04 07:26:11.110 ,1,0,0.,24.0,0.,24.0,0.,24.0,0.,24.0
1979-07-04 07:26:35.110 ,2,1,0.,24.0,0.,24.0,0.,24.0,0.,24.0
1979-07-04 07:26:59.110 ,2,0,0.,24.0,0.,24.0,0.,24.0,0.,24.0
1979-07-04 07:27:23.110 ,3,1,0.,24.0,0.,24.0,0.,24.0,0.,24.0
1979-07-04 07:27:47.110 ,3,0,0.,24.0,0.,24.0,0.,24.0,0.,24.0
1979-07-04 07:28:11.110 ,4,1,0.,24.0,0.,24.0,0.,24.0,0.,24.0
1979-07-04 07:28:35.110 ,4,0,1.,24.0,0.,24.0,1.,24.0,0.,24.0
1979-07-04 07:28:59.110 ,5,1,0.,24.0,0.,24.0,1.,24.0,0.,24.0
1979-07-04 07:29:23.110 ,5,0,0.,24.0,0.,24.0,0.,24.0,0.,24.0
1979-07-04 07:29:47.110 ,6,1,0.,24.0,0.,24.0,0.,24.0,0.,24.0
1979-07-04 07:30:11.110 ,6,0,0.,24.0,0.,24.0,0.,24.0,0.,24.0
1979-07-04 07:30:35.110 ,7,0,4.,24.0,0.,24.0,0.,24.0,0.,24.0
1979-07-04 07:30:59.110 ,7,0,28.,24.0,0.,24.0,0.,24.0,0.,24.0
1979-07-04 07:31:23.110 ,5,1,14.,24.0,0.,24.0,0.,24.0,0.,24.0
1979-07-04 07:31:47.110 ,1,1,0.,24.0,0.,24.0,1.,24.0,0.,24.0
1979-07-04 07:32:11.110 ,2,1,0.,24.0,0.,24.0,0.,24.0,0.,24.0
1979-07-04 07:32:35.110 ,6,1,0.,24.0,0.,24.0,1.,24.0,0.,24.0
1979-07-04 07:32:59.110 ,5,1,11.,24.0,0.,24.0,0.,24.0,0.,24.0
1979-07-04 07:33:23.110 ,1,1,0.,24.0,0.,24.0,0.,24.0,0.,24.0
1979-07-04 07:33:47.110 ,2,1,0.,24.0,0.,24.0,0.,24.0,0.,24.0
1979-07-04 07:34:11.110 ,6,1,0.,24.0,0.,24.0,0.,24.0,0.,24.0
1979-07-04 07:34:35.110 ,5,1,15.,24.0,0.,24.0,0.,24.0,0.,24.0
1979-07-04 07:34:59.110 ,1,1,0.,24.0,0.,24.0,0.,24.0,0.,24.0
1979-07-04 07:35:23.110 ,2,1,1.,24.0,0.,24.0,1.,24.0,0.,24.0
1979-07-04 07:35:47.110 ,6,1,0.,24.0,0.,24.0,0.,24.0,0.,24.0
1979-07-04 07:36:11.110 ,5,1,10.,24.0,0.,24.0,0.,24.0,0.,24.0
1979-07-04 07:36:35.110 ,1,1,0.,24.0,0.,24.0,0.,24.0,0.,24.0
1979-07-04 07:36:59.110 ,2,1,0.,24.0,0.,24.0,0.,24.0,0.,24.0
1979-07-04 07:37:23.110 ,6,1,0.,24.0,0.,24.0,0.,24.0,0.,24.0
1979-07-04 07:37:47.110 ,5,1,16.,24.0,0.,24.0,0.,24.0,0.,24.0
1979-07-04 07:38:11.110 ,1,1,0.,24.0,0.,24.0,1.,24.0,0.,24.0
1979-07-04 07:38:35.110 ,2,1,0.,24.0,0.,24.0,0.,24.0,0.,24.0
1979-07-04 07:38:59.110 ,6,1,0.,24.0,0.,24.0,0.,24.0,0.,24.0
1979-07-04 07:39:23.110 ,5,1,14.,24.0,0.,24.0,0.,24.0,0.,24.0
1979-07-04 07:39:47.110 ,1,1,0.,24.0,0.,24.0,1.,24.0,0.,24.0
1979-07-04 07:40:11.110 ,2,1,0.,24.0,0.,24.0,0.,24.0,0.,24.0
1979-07-04 07:40:35.110 ,6,1,0.,24.0,0.,24.0,1.,24.0,0.,24.0
1979-07-04 07:40:59.110 ,5,1,18.,24.0,0.,24.0,0.,24.0,0.,24.0
1979-07-04 07:41:23.110 ,1,1,1.,24.0,0.,24.0,2.,24.0,0.,24.0
1979-07-04 07:41:47.110 ,0,0,0.,24.0,0.,24.0,0.,24.0,0.,24.0
1979-07-04 07:42:11.110 ,0,0,0.,24.0,0.,24.0,0.,24.0,0.,24.0
1979-07-04 07:42:35.110 ,5,1,15.,24.0,0.,24.0,0.,24.0,0.,24.0
1979-07-04 07:42:59.110 ,5,0,1.,24.0,0.,24.0,0.,24.0,0.,24.0
1979-07-04 07:43:23.110 ,4,1,0.,24.0,0.,24.0,0.,24.0,0.,24.0
1979-07-04 07:43:47.110 ,4,0,0.,24.0,0.,24.0,0.,24.0,0.,24.0
1979-07-04 07:44:11.110 ,3,1,0.,24.0,0.,24.0,0.,24.0,0.,24.0
1979-07-04 07:44:35.110 ,3,0,0.,24.0,0.,24.0,1.,24.0,0.,24.0
1979-07-04 07:44:59.110 ,2,1,0.,24.0,0.,24.0,0.,24.0,0.,24.0
1979-07-04 07:45:23.110 ,2,0,0.,24.0,0.,24.0,1.,24.0,0.,24.0
1979-07-04 07:45:47.110 ,1,1,1.,24.0,0.,24.0,0.,24.0,0.,24.0
1979-07-04 07:46:11.110 ,1,0,0.,24.0,0.,24.0,1.,24.0,0.,24.0
1979-07-04 07:46:35.110 ,0,1,0.,24.0,0.,24.0,0.,24.0,0.,24.0
1979-07-04 07:46:59.110 ,0,0,0.,24.0,0.,24.0,0.,24.0,0.,24.0
1979-07-04 07:47:23.110 ,0,1,0.,24.0,0.,24.0,0.,24.0,0.,24.0
1979-07-04 07:47:47.110 ,0,0,0.,24.0,0.,24.0,0.,24.0,0.,24.0
1979-07-04 07:48:11.110 ,1,1,0.,24.0,0.,24.0,0.,24.0,0.,24.0
1979-07-04 07:48:35.110 ,1,0,0.,24.0,0.,24.0,1.,24.0,0.,24.0
1979-07-04 07:48:59.110 ,2,1,0.,24.0,0.,24.0,1.,24.0,0.,24.0
1979-07-04 07:49:23.110 ,2,0,0.,24.0,0.,24.0,0.,24.0,0.,24.0
1979-07-04 07:49:47.110 ,3,1,0.,24.0,0.,24.0,0.,24.0,0.,24.0
1979-07-04 07:50:11.110 ,3,0,0.,24.0,0.,24.0,0.,24.0,0.,24.0
1979-07-04 07:50:35.110 ,4,1,0.,24.0,0.,24.0,0.,24.0,0.,24.0
1979-07-04 07:50:59.110 ,4,0,1.,24.0,0.,24.0,1.,24.0,0.,24.0
1979-07-04 07:51:23.110 ,5,1,0.,24.0,1.,24.0,0.,24.0,0.,24.0
1979-07-04 07:51:47.110 ,5,0,0.,24.0,0.,24.0,0.,24.0,0.,24.0
1979-07-04 07:52:11.110 ,6,1,0.,24.0,0.,24.0,0.,24.0,0.,24.0
1979-07-04 07:52:35.110 ,6,0,0.,24.0,0.,24.0,0.,24.0,0.,24.0
1979-07-04 07:52:59.110 ,7,1,6.,24.0,0.,24.0,0.,24.0,0.,24.0
1979-07-04 07:53:23.110 ,7,0,24.,24.0,0.,24.0,0.,24.0,0.,24.0
1979-07-04 07:53:47.110 ,7,1,35.,24.0,0.,24.0,0.,24.0,0.,24.0
1979-07-04 07:54:11.110 ,7,0,33.,24.0,0.,24.0,0.,24.0,0.,24.0
1979-07-04 07:54:35.110 ,6,1,15.,24.0,0.,24.0,0.,24.0,0.,24.0
1979-07-04 07:54:59.110 ,6,0,0.,24.0,0.,24.0,0.,24.0,0.,24.0
1979-07-04 07:55:23.110 ,5,1,0.,24.0,0.,24.0,0.,24.0,0.,24.0
1979-07-04 07:55:47.110 ,5,0,0.,24.0,0.,24.0,0.,24.0,0.,24.0
1979-07-04 07:56:11.110 ,4,1,0.,24.0,0.,24.0,0.,24.0,0.,24.0
1979-07-04 07:56:35.110 ,4,0,0.,24.0,0.,24.0,0.,24.0,0.,24.0
1979-07-04 07:56:59.110 ,3,1,0.,24.0,0.,24.0,0.,24.0,0.,24.0
1979-07-04 07:57:23.110 ,3,0,0.,24.0,0.,24.0,0.,24.0,0.,24.0
1979-07-04 07:57:47.110 ,2,1,0.,24.0,0.,24.0,2.,24.0,0.,24.0
1979-07-04 07:58:11.110 ,2,0,0.,24.0,0.,24.0,0.,24.0,0.,24.0
1979-07-04 07:58:35.110 ,1,1,0.,24.0,1.,24.0,1.,24.0,0.,24.0
1979-07-04 07:58:59.110 ,1,0,0.,24.0,0.,24.0,0.,24.0,0.,24.0
1979-07-04 07:59:23.110 ,0,1,2.,24.0,0.,24.0,0.,24.0,0.,24.0
1979-07-04 07:59:47.110 ,0,0,0.,24.0,1.,24.0,1.,24.0,0.,24.0
1979-07-04 08:00:11.110 ,0,1,0.,24.0,1.,24.0,1.,24.0,0.,24.0
1979-07-04 08:00:35.110 ,0,0,1.,24.0,0.,24.0,0.,24.0,0.,24.0
1979-07-04 08:00:59.110 ,1,1,0.,24.0,0.,24.0,0.,24.0,0.,24.0
1979-07-04 08:01:23.110 ,1,0,0.,24.0,0.,24.0,0.,24.0,0.,24.0
1979-07-04 08:01:47.110 ,2,1,0.,24.0,0.,24.0,0.,24.0,0.,24.0
1979-07-04 08:02:11.110 ,2,0,0.,24.0,0.,24.0,0.,24.0,0.,24.0
1979-07-04 08:02:35.110 ,3,1,0.,24.0,0.,24.0,0.,24.0,0.,24.0
1979-07-04 08:02:59.110 ,3,0,0.,24.0,0.,24.0,1.,24.0,0.,24.0
1979-07-04 08:03:23.110 ,4,1,0.,24.0,0.,24.0,0.,24.0,0.,24.0
1979-07-04 08:03:47.110 ,4,0,0.,24.0,0.,24.0,1.,24.0,0.,24.0
1979-07-04 08:04:11.110 ,5,1,0.,24.0,0.,24.0,0.,24.0,0.,24.0
1979-07-04 08:04:35.110 ,5,0,0.,24.0,0.,24.0,0.,24.0,0.,24.0
1979-07-04 08:04:59.110 ,6,1,0.,24.0,0.,24.0,0.,24.0,0.,24.0
1979-07-04 08:05:23.110 ,6,0,0.,24.0,0.,24.0,1.,24.0,0.,24.0
1979-07-04 08:05:47.110 ,7,1,5.,24.0,0.,24.0,0.,24.0,0.,24.0
1979-07-04 08:06:11.110 ,7,0,24.,24.0,0.,24.0,0.,24.0,0.,24.0
1979-07-04 08:06:35.110 ,7,1,31.,24.0,0.,24.0,1.,24.0,0.,24.0
1979-07-04 08:06:59.110 ,7,0,31.,24.0,0.,24.0,1.,24.0,0.,24.0
1979-07-04 08:07:23.110 ,6,1,29.,24.0,0.,24.0,0.,24.0,0.,24.0
1979-07-04 08:07:47.110 ,6,0,0.,24.0,0.,24.0,0.,24.0,0.,24.0
1979-07-04 08:08:11.110 ,5,1,0.,24.0,0.,24.0,0.,24.0,0.,24.0
1979-07-04 08:08:35.110 ,5,0,0.,24.0,0.,24.0,0.,24.0,0.,24.0
1979-07-04 08:08:59.110 ,4,1,0.,24.0,0.,24.0,1.,24.0,0.,24.0
1979-07-04 08:09:23.110 ,4,0,0.,24.0,0.,24.0,0.,24.0,0.,24.0
1979-07-04 08:09:47.110 ,3,1,0.,24.0,0.,24.0,1.,24.0,0.,24.0
1979-07-04 08:10:11.110 ,3,0,0.,24.0,0.,24.0,0.,24.0,0.,24.0
1979-07-04 08:10:35.110 ,2,1,0.,24.0,0.,24.0,0.,24.0,0.,24.0
1979-07-04 08:10:59.110 ,2,0,0.,24.0,0.,24.0,0.,24.0,0.,24.0
1979-07-04 08:11:23.110 ,1,1,1.,24.0,0.,24.0,0.,24.0,0.,24.0
1979-07-04 08:11:47.110 ,1,0,1.,24.0,0.,24.0,0.,24.0,0.,24.0
1979-07-04 08:12:11.110 ,0,1,2.,24.0,0.,24.0,0.,24.0,0.,24.0
1979-07-04 08:12:35.110 ,0,0,0.,24.0,0.,24.0,0.,24.0,0.,24.0
1979-07-04 08:12:59.110 ,0,1,0.,24.0,0.,24.0,0.,24.0,0.,24.0
1979-07-04 08:13:47.110 ,0,0,0.,24.0,0.,24.0,0.,24.0,0.,24.0
1979-07-04 08:14:11.110 ,0,0,0.,24.0,0.,24.0,0.,24.0,0.,24.0
1979-07-04 08:16:15.310 ,0,0,0.,24.0,0.,24.0,0.,24.0,0.,24.0
1979-07-04 08:16:35.110 ,0,0,0.,24.0,0.,24.0,0.,24.0,0.,24.0
1979-07-04 08:16:59.110 ,5,1,0.,24.0,0.,24.0,0.,24.0,0.,24.0
1979-07-04 08:17:23.110 ,5,0,0.,24.0,0.,24.0,0.,24.0,0.,24.0
1979-07-04 08:17:47.110 ,6,1,0.,24.0,0.,24.0,0.,24.0,0.,24.0
1979-07-04 08:18:11.110 ,6,0,0.,24.0,0.,24.0,1.,24.0,0.,24.0
1979-07-04 08:18:35.110 ,7,0,7.,24.0,0.,24.0,0.,24.0,0.,24.0
1979-07-04 08:18:59.110 ,7,0,23.,24.0,0.,24.0,0.,24.0,0.,24.0
1979-07-04 08:19:23.110 ,5,1,17.,24.0,0.,24.0,1.,24.0,0.,24.0
1979-07-04 08:19:47.110 ,1,1,0.,24.0,0.,24.0,0.,24.0,0.,24.0
1979-07-04 08:20:11.110 ,2,1,0.,24.0,0.,24.0,0.,24.0,0.,24.0
1979-07-04 08:20:35.110 ,6,1,0.,24.0,0.,24.0,0.,24.0,0.,24.0
1979-07-04 08:20:59.110 ,5,1,19.,24.0,0.,24.0,0.,24.0,0.,24.0
1979-07-04 08:21:23.110 ,1,1,0.,24.0,0.,24.0,0.,24.0,0.,24.0
1979-07-04 08:21:47.110 ,2,1,0.,24.0,0.,24.0,0.,24.0,0.,24.0
1979-07-04 08:22:11.110 ,6,1,0.,24.0,0.,24.0,0.,24.0,0.,24.0
1979-07-04 08:22:35.110 ,5,1,16.,24.0,0.,24.0,0.,24.0,0.,24.0
1979-07-04 08:22:59.110 ,1,1,1.,24.0,0.,24.0,0.,24.0,0.,24.0
1979-07-04 08:23:23.110 ,2,1,1.,24.0,0.,24.0,0.,24.0,0.,24.0
1979-07-04 08:23:47.110 ,6,1,0.,24.0,0.,24.0,1.,24.0,0.,24.0
1979-07-04 08:24:11.110 ,5,1,13.,24.0,0.,24.0,0.,24.0,0.,24.0
1979-07-04 08:24:35.110 ,1,1,0.,24.0,0.,24.0,0.,24.0,0.,24.0
1979-07-04 08:24:59.110 ,2,1,0.,24.0,0.,24.0,1.,24.0,0.,24.0
1979-07-04 08:25:23.110 ,6,1,0.,24.0,0.,24.0,1.,24.0,0.,24.0
1979-07-04 08:25:47.110 ,5,1,14.,24.0,0.,24.0,0.,24.0,0.,24.0
1979-07-04 08:26:11.110 ,1,1,0.,24.0,0.,24.0,0.,24.0,0.,24.0
1979-07-04 08:26:35.110 ,2,1,0.,24.0,0.,24.0,0.,24.0,0.,24.0
1979-07-04 08:26:59.110 ,6,1,0.,24.0,0.,24.0,0.,24.0,0.,24.0
1979-07-04 08:27:23.110 ,5,1,13.,24.0,0.,24.0,0.,24.0,0.,24.0
1979-07-04 08:27:47.110 ,1,1,0.,24.0,0.,24.0,0.,24.0,0.,24.0
1979-07-04 08:28:11.110 ,2,1,0.,24.0,0.,24.0,0.,24.0,0.,24.0
1979-07-04 08:28:35.110 ,6,1,0.,24.0,0.,24.0,1.,24.0,0.,24.0
1979-07-04 08:28:59.110 ,5,1,15.,24.0,0.,24.0,0.,24.0,0.,24.0
1979-07-04 08:29:23.110 ,1,1,0.,24.0,0.,24.0,0.,24.0,0.,24.0
1979-07-04 08:29:47.110 ,0,0,0.,24.0,0.,24.0,0.,24.0,0.,24.0
1979-07-04 08:30:11.110 ,0,0,1.,24.0,0.,24.0,1.,24.0,0.,24.0
1979-07-04 08:30:35.110 ,5,1,20.,24.0,0.,24.0,0.,24.0,0.,24.0
1979-07-04 08:30:59.110 ,5,0,,0,,0,,0,,0
1979-07-04 08:31:23.110 ,4,1,0.,24.0,0.,24.0,0.,24.0,0.,24.0
1979-07-04 08:31:47.110 ,4,0,0.,24.0,0.,24.0,0.,24.0,0.,24.0
1979-07-04 08:32:11.110 ,3,1,0.,24.0,0.,24.0,0.,24.0,0.,24.0
1979-07-04 08:32:35.110 ,3,0,1.,24.0,0.,24.0,0.,24.0,0.,24.0
1979-07-04 08:32:59.110 ,2,1,0.,24.0,0.,24.0,0.,24.0,0.,24.0
1979-07-04 08:33:23.110 ,2,0,0.,24.0,0.,24.0,0.,24.0,0.,24.0
1979-07-04 08:33:47.110 ,1,1,0.,24.0,0.,24.0,0.,24.0,0.,24.0
1979-07-04 08:34:11.110 ,1,0,0.,24.0,0.,24.0,0.,24.0,0.,24.0
1979-07-04 08:34:35.110 ,0,1,0.,24.0,0.,24.0,0.,24.0,0.,24.0
1979-07-04 08:34:59.110 ,0,0,0.,24.0,0.,24.0,1.,24.0,0.,24.0
1979-07-04 08:35:23.110 ,0,1,0.,24.0,0.,24.0,0.,24.0,0.,24.0
1979-07-04 08:35:47.110 ,0,0,0.,24.0,0.,24.0,1.,24.0,0.,24.0
1979-07-04 08:36:11.110 ,1,1,0.,24.0,0.,24.0,0.,24.0,0.,24.0